SCP
0 0 0 0 0 0 0 0 0 0 0 0 0 0 0 0 0 0 0 0 0 0 0 0 0 0 0 0 0 0 -0 0 0 0 0 0 -0 -0 0 0 0 0 0 0 0 0 0 0 0 0 0 0 0 0
0 0 0 0 -0 0 0 0 0 0 0 0 0 0 0 0 0 0 0 0 0 0 0 0 0 0 0 0 0 0 0 0 0 0 0 0 0 0 0 0 0 0 0 0 0 0 0 0 0 0 0 0 0 0
0 0 0 0 -0 -0 -0 0 0 0 0 0 0 0 -0 -0 -0 0 0 0 0 0 0 0 0 0 0 0 0 -0 0 0 0 0 0 0 0 0 0 0 0 0 0 0 0 0 0 0 0 0 0 0 0 0
0 0 0 0 0 0 -0 0 0 0 0 0 0 0 0 0 -0 0 0 0 0 0 0 0 0 0 0 -0 0 0 0 0 0 0 0 0 0 0 0 0 0 0 0 0 0 0 0 0 0 0 0 0 0 0
-0 -0 0 0 0 0 0 -0 0 0 0 0 0 0 0 0 0 0 0 0 0 0 0 0 0 0 0 -0 -0 0 0 -0 0 0 0 0 0 0 0 0 0 0 0 0 0 0 0 0 0 0 0 0 0 0
-0 -0 -0 0 -0 0 -0 -0 0 0 0 0 0 -0 -0 -0 0 0 0 -0 -0 0 0 -0 0 -0 -0 -0 0 0 0 0 0 0 0 0 0 0 0 0 0 0 0 0 0 0 0 0 0 0 0 0 0 0
-0 -0 -0 -0 -0 0 -0 0 0 0 0 0 0 0 -0 -0 -0 -0 -0 -0 0 0 0 -0 -0 -0 -0 -0 0 0 0 0 0 0 0 0 0 0 0 0 0 0 0 0 0 0 0 0 0 0 0 0 0 0
-0 -0 -0 -0 -0 -0 0 0 0 0 0 0 0 0 0 0 0 0 -0 0 0 0 0 -0 -0 -0 -0 -0 0 0 0 0 0 0 0 0 0 0 0 0 0 0 0 0 0 0 0 0 0 0 0 0 0 0
0 0 -0 0 0 -0 -0 0 0 0 0 0 0 0 0 0 0 0 0 0 0 0 -0 -0 -0 -0 -0 -0 0 0 0 0 0 0 0 0 0 0 0 0 0 0 0 0 0 0 0 0 0 0 0 0 0 0
-0 0 0 0 -0 -0 -0 0 0 0 0 0 0 0 0 0 0 0 0 0 0 0 0 -0 -0 -0 -0 0 0 0 0 0 0 0 0 0 0 0 0 0 0 0 0 0 0 0 0 0 0 0 0 0 0 0
0 0 0 0 0 0 -0 -0 0 0 0 0 0 0 0 0 0 0 0 0 0 0 0 -0 -0 -0 -0 0 0 0 0 0 0 0 0 0 0 0 0 0 0 0 0 0 0 0 0 0 0 0 0 0 0 0
0 0 0 0 0 0 0 0 0 0 0 0 0 0 0 0 0 0 0 0 0 0 0 0 0 -0 -0 -0 0 0 0 0 0 0 0 0 0 0 0 0 0 0 0 0 0 0 0 0 0 0 0 0 0 0
0 0 0 0 0 0 0 0 0 0 0 0 0 0 0 0 0 0 0 0 0 0 0 0 0 -0 -0 -0 0 0 0 0 0 0 0 0 0 0 0 0 0 0 0 0 0 0 0 0 0 0 0 0 0 0
-0 0 -0 0 0 0 0 0 0 0 0 0 0 0 0 0 0 0 0 0 0 0 0 0 -0 -0 -0 0 0 0 0 0 0 0 0 0 0 0 0 0 0 0 0 0 0 0 0 0 0 0 0 0 0 0
-0 -0 -0 -0 -0 0 0 0 0 0 0 0 0 0 0 0 0 0 0 0 0 0 0 0 0 -0 -0 -0 0 0 0 0 0 0 0 0 0 0 0 0 0 0 0 0 0 0 0 0 0 0 0 0 0 0
-0 -0 -0 -0 -0 -0 -0 0 0 0 0 0 0 0 0 0 0 0 0 0 0 0 0 0 0 0 0 0 0 0 0 0 0 0 0 0 0 0 0 0 0 0 0 0 0 0 0 0 0 0 0 0 0 0
-0 -0 -0 -0 -0 -0 -0 -0 0 0 0 0 0 0 0 0 0 0 0 0 0 0 0 0 0 0 0 0 0 0 0 0 0 0 0 0 0 0 0 0 0 0 0 0 0 0 0 0 0 0 0 0 0 0
0 0 -0 -0 -0 -0 -0 -0 -0 -0 0 0 0 0 0 0 0 0 0 0 0 0 0 0 0 0 0 0 0 0 0 0 0 0 0 0 0 0 0 0 0 0 0 0 0 0 0 0 0 0 0 0 0 0
0 0 -0 -0 -0 -0 -0 -0 -0 -0 0 0 0 0 0 0 0 0 0 0 -0 -0 0 0 0 0 0 0 0 0 0 0 0 0 0 0 0 0 0 0 0 0 0 0 0 0 0 0 0 0 0 0 0 0
0 -0 0 -0 0 -0 -0 -0 -0 -0 0 0 0 0 -0 -0 -0 0 0 0 -0 0 0 0 0 0 0 0 0 0 0 0 0 0 0 0 0 0 0 0 0 0 0 0 0 0 0 0 0 0 0 0 0 0
0 0 0 0 0 0 -0 0 0 -0 0 0 -0 -0 -0 0 0 0 0 0 0 0 0 0 0 0 0 0 0 0 0 0 0 0 0 0 0 0 0 0 0 0 0 0 0 0 0 0 0 0 0 0 0 0
0 0 0 0 0 -0 -0 0 -0 -0 -0 -0 0 -0 -0 -0 -0 -0 0 0 -0 -0 -0 -0 -0 0 0 0 0 0 0 0 0 0 0 0 0 0 0 0 0 0 0 0 0 0 0 0 0 0 0 0 0 0
0 0 0 -0 0 -0 0 -0 -0 -0 0 0 0 0 0 0 -0 0 -0 -0 -0 -0 -0 -0 -0 -0 -0 -0 -0 -0 -0 0 -0 -0 0 0 0 0 0 0 0 0 0 0 0 0 0 0 0 0 0 0 0 0
-0 0 0 0 0 0 0 0 0 0 0 0 0 0 0 0 -0 0 0 -0 -0 -0 -0 -0 0 0 0 0 -0 -0 -0 0 0 0 0 0 0 0 0 0 0 0 0 0 0 0 0 0 0 0 0 0 0 0
0 0 0 0 0 0 0 0 0 0 0 0 0 0 0 0 0 0 0 0 0 0 0 0 0 0 -0 0 -0 -0 0 0 0 0 0 0 0 0 0 0 0 0 0 0 0 0 0 0 0 0 0 0 0 0
0 0 0 0 0 0 0 0 0 0 0 0 0 0 0 0 0 0 0 0 0 0 0 -0 -0 0 0 -0 0 0 0 0 0 0 0 0 0 0 0 0 0 0 0 0 0 0 0 0 0 0 0 0 0 0
0 0 0 0 0 0 0 0 0 0 0 0 0 0 0 0 0 0 0 0 0 0 0 0 0 0 0 0 0 0 0 0 0 0 0 0 0 0 0 0 0 0 0 0 0 0 0 0 0 0 0 0 0 0
0 0 0 0 0 0 0 0 0 0 0 0 0 0 0 0 0 0 0 0 0 0 0 0 0 0 0 0 0 0 0 0 0 0 0 0 0 0 0 0 0 0 0 0 0 0 0 0 0 0 0 0 0 0
0 0 0 0 0 0 0 0 0 0 0 0 0 0 0 0 0 0 0 0 0 0 0 0 0 0 0 0 0 0 0 0 0 0 0 0 0 0 0 0 0 0 0 0 0 0 0 0 0 0 0 0 0 0
0 0 0 0 0 0 0 0 0 0 0 0 0 0 0 0 0 0 0 0 0 0 0 0 0 0 0 0 0 0 0 0 0 0 0 0 0 0 0 0 0 0 0 0 0 0 0 0 0 0 0 0 0 0
0 0 0 0 0 0 0 0 0 0 0 0 0 0 0 0 0 0 0 0 0 0 0 0 0 0 0 0 0 0 0 0 0 0 0 0 0 0 0 0 0 0 0 0 0 0 0 0 0 0 0 0 0 0
0 0 0 0 0 0 0 0 0 0 0 0 0 0 0 0 0 0 0 0 0 0 0 0 0 0 0 0 0 0 0 0 0 0 0 0 0 0 0 0 0 0 0 0 0 0 0 0 0 0 0 0 0 0
0 0 0 0 0 0 0 0 0 0 0 0 0 0 0 0 0 0 0 0 0 0 0 0 0 0 0 0 0 0 0 0 0 0 0 0 0 0 0 0 0 0 0 0 0 0 0 0 0 0 0 0 0 0
Wind_Speed_500mb
42 21 29 22 27 29 51 67 65 66 54 48 44 40 37 37 31 31 34 34 28 16 20 30 33 21 15 10 6 5 11 16 10 18 13 8 7 7 2 19 34 16 14 10 7 5 28 24 57 50 40 29 9 68
45 22 30 24 29 36 43 57 59 55 46 44 42 37 33 31 27 23 19 30 38 18 9 28 39 44 43 37 18 19 18 13 22 12 7 6 6 7 17 18 4 11 27 20 24 19 1 84 31 64 42 30 22 50
45 33 28 25 33 38 38 47 54 45 38 33 31 29 28 26 20 14 15 21 23 13 16 25 35 36 42 43 44 21 20 26 19 20 8 3 6 7 9 9 13 1 9 11 11 15 12 53 36 62 22 25 26 22
53 37 35 33 38 37 36 38 43 39 32 30 29 28 25 23 22 15 13 12 13 6 2 11 22 41 31 22 34 57 61 48 38 24 7 6 5 10 6 7 8 6 13 12 5 3 6 16 66 59 49 16 25 29
61 39 30 35 35 39 46 45 38 32 30 32 31 30 30 28 21 14 9 9 4 7 5 12 26 42 34 33 40 51 67 67 38 9 4 7 3 8 4 2 5 11 6 12 8 6 11 22 71 58 54 33 37 47
64 62 43 28 41 42 46 39 36 30 23 18 17 18 17 13 8 3 4 3 13 6 2 5 9 16 23 52 38 49 66 62 39 13 6 8 7 8 4 4 13 25 26 24 12 30 17 15 33 51 51 42 45 46
59 58 54 56 58 50 38 38 34 29 25 25 25 21 16 12 7 8 7 11 11 4 4 6 6 8 26 26 17 8 35 29 24 15 6 8 4 7 6 2 29 39 34 20 26 23 12 5 10 50 52 48 49 48
60 55 47 43 40 34 32 28 23 20 19 19 21 22 21 15 6 5 22 11 16 1 0 2 7 10 26 14 10 9 9 13 3 3 4 4 9 9 7 22 38 44 39 8 36 23 21 19 8 42 46 56 54 55
53 48 48 40 28 24 19 17 15 13 12 12 12 12 9 4 3 12 15 9 10 11 6 5 1 7 23 12 13 12 9 3 10 4 5 9 8 12 16 33 42 47 38 47 39 26 15 1 16 38 51 54 60 64
46 47 46 36 29 22 15 11 10 9 8 8 9 5 5 13 19 12 8 3 6 16 14 4 13 5 13 8 5 7 9 4 2 4 11 9 6 16 34 30 33 39 36 36 30 16 22 15 4 18 33 43 55 64
35 38 42 39 26 22 16 12 8 7 9 9 11 8 17 16 11 11 11 15 15 8 21 18 10 7 9 5 6 8 4 4 2 4 3 6 6 15 49 41 37 34 28 24 13 9 6 3 4 13 20 28 39 49
29 30 31 33 32 18 18 17 16 7 12 11 10 13 15 19 13 13 3 9 10 5 20 10 17 16 18 11 6 9 5 6 6 10 8 6 6 32 45 42 37 33 28 21 16 12 14 17 20 22 28 32 38 44
32 29 30 27 31 21 14 15 15 16 13 12 8 10 19 20 19 11 12 9 9 17 21 27 14 16 12 5 5 6 9 5 4 9 6 5 21 37 41 39 31 29 25 22 25 26 26 31 30 32 36 37 39 44
33 32 30 27 24 19 16 8 14 7 7 11 14 14 8 10 2 6 6 6 13 18 37 40 15 6 12 8 4 7 5 5 6 7 6 6 28 34 31 29 30 32 30 29 31 29 32 36 39 37 35 34 34 39
28 28 26 21 20 21 22 10 15 4 13 13 13 7 5 3 7 11 17 18 14 28 33 18 19 9 6 6 7 5 9 9 9 6 5 20 30 30 31 33 31 30 32 34 32 31 35 35 34 37 37 38 40 42
26 21 31 33 23 18 18 15 10 19 13 12 17 7 12 2 10 13 12 17 32 41 17 7 6 7 8 4 11 9 6 7 4 4 19 25 23 26 27 28 28 29 30 29 29 30 30 30 31 31 28 29 29 28
26 30 24 21 36 29 11 14 17 19 14 11 11 16 9 4 10 15 24 32 43 19 2 3 9 3 6 7 8 7 4 5 12 15 16 16 19 25 27 26 28 29 28 28 29 27 27 25 24 22 20 22 21 19
35 32 21 19 13 31 51 26 16 17 17 18 7 11 8 9 19 15 32 43 24 16 10 4 2 14 6 6 5 3 4 12 11 13 15 17 18 20 25 25 26 28 26 26 26 26 23 20 18 18 17 13 12 10
37 33 18 25 26 17 15 20 18 13 14 7 9 20 10 9 20 28 39 30 16 16 6 8 11 5 1 3 6 3 6 10 10 12 11 14 15 20 22 22 22 24 23 23 22 22 20 18 15 12 10 8 7 6
31 27 22 19 11 13 13 15 13 11 8 9 14 14 8 10 22 26 37 31 25 13 21 10 1 3 4 5 8 9 10 10 14 12 9 13 17 20 19 20 22 23 22 22 22 20 18 16 14 13 12 12 12 14
26 32 30 39 46 27 17 12 14 11 6 7 19 16 10 15 17 34 37 33 20 14 6 9 8 8 10 10 10 10 9 11 12 13 16 16 19 20 22 24 24 25 25 24 22 20 18 17 17 18 18 20 21 23
28 29 37 33 21 15 19 23 9 8 7 8 13 19 13 12 19 24 26 25 11 10 7 6 8 8 7 7 7 9 9 9 10 10 13 17 17 14 14 20 20 20 21 24 24 24 25 29 30 29 29 29 30 31
21 27 21 24 13 17 8 15 7 14 7 18 11 9 9 12 21 21 9 8 6 11 11 10 10 10 10 9 8 9 9 10 11 12 15 17 19 22 22 24 27 28 27 23 28 29 29 30 32 34 34 36 39 39
25 15 15 14 21 6 9 13 11 11 8 10 7 8 10 14 25 10 2 4 7 8 7 6 7 7 8 8 10 12 14 15 15 17 18 18 17 17 21 23 27 31 35 34 30 30 32 33 34 35 37 39 40 43
11 22 14 14 17 9 13 12 14 9 4 6 7 7 8 14 6 5 3 4 6 5 5 4 5 6 7 7 9 10 13 15 16 15 21 24 27 28 27 29 29 32 33 35 35 36 35 38 41 44 44 46 48 49
14 17 10 4 6 6 4 5 4 2 1 6 5 7 7 5 6 7 6 4 6 4 3 4 4 6 8 11 13 15 18 22 25 25 24 27 30 34 37 38 40 36 38 40 44 47 49 49 52 55 57 56 57 60
8 3 6 6 4 6 7 5 4 3 1 4 4 5 5 3 7 8 8 7 4 5 8 9 10 10 11 13 17 21 24 26 27 29 30 31 34 35 36 42 43 38 40 42 46 51 58 62 64 65 69 69 67 67
8 4 4 3 4 4 7 2 4 7 7 8 6 2 11 14 9 8 10 10 12 13 13 13 13 11 10 11 13 16 18 22 25 28 30 26 29 35 34 40 43 45 49 53 57 61 64 68 71 73 75 77 78 73
4 2 2 2 4 8 12 14 10 7 7 10 7 6 10 12 12 13 20 26 31 28 23 19 18 16 15 14 14 16 21 26 32 35 39 45 49 45 46 46 49 52 56 61 60 64 66 67 67 67 69 70 70 68
3 6 3 3 5 7 7 13 8 11 15 21 15 19 27 46 30 24 26 25 24 20 18 22 22 23 24 27 25 26 28 33 36 39 46 53 55 54 54 54 55 54 55 56 57 57 54 54 55 55 56 56 57 59
7 5 5 7 8 6 9 15 24 31 30 25 38 45 45 30 35 20 21 18 13 12 11 11 13 20 25 27 30 32 34 36 39 44 49 52 54 55 53 52 52 53 54 54 54 55 56 56 57 59 60 60 60 59
5 5 4 6 6 10 19 6 9 8 9 9 11 15 10 12 15 13 23 28 21 16 10 13 16 17 19 20 22 25 31 36 41 44 48 51 50 49 49 48 46 45 48 50 51 53 54 56 59 60 62 64 64 64
7 7 9 9 7 6 6 14 7 8 11 9 10 10 12 11 18 15 23 26 22 18 14 13 13 12 16 22 26 30 33 35 39 40 41 42 44 45 46 45 45 46 49 51 53 54 55 56 58 60 62 65 67 68
Wind_Direction_500mb
29 64 69 62 56 76 118 169 150 147 148 152 151 149 157 174 192 205 219 221 200 211 230 213 220 208 188 172 198 352 224 216 208 212 216 190 177 179 294 209 174 164 155 166 144 171 256 169 147 164 210 193 241 205
23 82 84 76 91 84 104 117 131 131 138 141 141 144 153 160 160 167 171 186 201 209 250 238 240 247 252 250 221 205 250 285 197 201 228 149 178 123 235 179 149 148 193 177 188 207 144 172 169 201 165 191 201 199
53 71 79 86 108 94 107 112 104 118 133 137 141 147 152 150 151 165 169 173 183 222 254 252 252 265 261 256 238 216 226 237 241 212 186 193 189 115 234 231 152 227 187 166 114 211 196 197 201 210 212 220 216 220
41 74 86 87 96 113 111 105 107 102 113 125 132 136 143 143 139 136 135 162 182 167 268 273 250 251 263 277 245 235 239 230 280 264 165 186 186 137 265 219 164 183 152 153 277 210 54 213 208 209 210 218 208 203
46 59 79 93 99 109 111 106 110 110 101 106 113 119 126 133 135 135 126 126 189 218 221 281 274 268 266 292 273 235 238 248 256 257 188 211 179 120 234 257 76 358 1 202 206 191 172 205 206 208 202 201 199 188
44 58 64 81 101 102 103 110 111 113 114 114 126 136 138 136 131 129 176 247 338 250 202 287 264 277 275 309 280 243 228 227 227 222 196 198 184 122 224 32 29 12 0 4 321 323 277 287 204 196 200 199 187 182
41 39 52 51 67 90 94 104 105 104 103 96 92 103 129 123 110 101 72 357 332 234 213 306 302 305 323 325 311 235 204 201 216 192 190 163 117 78 76 39 349 346 337 338 346 335 263 338 191 196 200 197 186 179
34 34 35 42 61 82 95 101 103 99 93 89 88 89 94 106 96 37 13 10 15 222 70 46 280 331 358 312 297 325 238 194 111 109 90 83 52 50 76 352 347 345 343 319 352 355 310 292 264 199 203 192 183 178
29 30 28 27 47 61 75 91 99 103 94 82 85 81 94 68 74 338 340 9 24 40 105 78 12 293 344 297 292 303 309 47 25 34 39 57 16 47 353 344 346 347 351 323 331 2 354 341 173 185 185 181 184 177
24 27 24 28 41 45 44 59 71 84 94 78 54 79 98 341 349 2 23 15 46 25 33 47 318 284 338 313 291 320 350 337 77 69 73 60 83 93 12 351 347 340 338 344 356 344 14 30 105 162 172 181 187 180
20 23 25 30 36 43 37 26 26 51 60 40 42 38 5 1 23 38 42 38 342 28 6 346 312 328 315 287 288 345 323 308 82 40 61 63 46 357 347 354 359 356 356 360 346 326 2 345 152 162 165 174 177 175
22 20 17 22 24 29 38 41 43 68 76 67 54 21 13 25 35 65 346 342 38 4 335 323 312 297 294 315 302 341 340 353 39 341 61 60 28 349 351 357 4 10 18 24 35 67 98 123 128 143 145 149 154 160
31 31 21 15 15 20 28 42 53 64 86 63 45 47 13 356 38 55 341 328 353 345 7 342 321 317 303 297 291 348 12 10 290 43 64 43 349 349 355 -0 12 25 37 48 63 73 93 106 120 129 129 132 140 144
24 19 13 11 17 25 28 41 31 45 50 54 38 29 67 352 3 187 203 233 297 305 323 320 270 292 310 341 332 349 345 16 66 51 34 7 346 345 355 8 21 30 42 52 62 74 91 101 104 109 113 119 130 132
10 17 20 22 21 26 21 20 26 86 59 65 41 59 64 279 274 295 300 294 305 300 320 314 281 245 318 351 10 349 21 57 34 29 0 343 340 350 3 15 23 31 40 49 57 65 73 82 93 103 111 121 129 133
12 32 36 35 28 13 13 31 71 66 63 58 53 68 3 18 342 349 322 312 341 331 328 252 277 20 22 18 37 26 349 37 10 338 323 336 352 3 9 16 24 31 40 48 56 62 71 79 86 89 98 108 115 121
26 35 38 34 33 12 24 76 54 53 54 54 45 27 29 297 281 325 334 337 341 339 358 321 48 236 309 45 46 13 35 315 318 324 334 345 354 3 12 21 29 34 41 48 54 62 67 73 75 82 96 100 106 115
26 24 29 25 38 54 65 53 71 64 66 55 66 4 359 8 354 358 348 348 357 3 4 93 314 41 46 60 2 347 332 322 323 337 343 346 351 6 14 21 28 33 39 45 49 53 57 61 63 65 70 81 87 99
21 23 51 43 62 59 54 42 48 84 57 37 8 358 343 355 1 359 0 0 9 31 35 49 60 66 305 224 226 284 333 350 341 344 8 27 34 18 16 21 24 25 32 37 39 40 42 43 40 35 28 18 0 340
31 36 51 54 71 67 69 45 47 72 67 11 359 351 351 357 357 5 16 25 40 46 39 42 165 312 272 313 307 316 332 345 357 8 21 16 12 10 15 17 18 19 20 20 16 16 15 7 358 348 337 322 309 298
52 59 68 76 67 65 72 49 52 57 38 20 7 0 338 354 7 11 13 19 52 42 57 37 8 357 351 352 355 356 358 358 1 1 350 3 10 15 14 12 14 14 13 13 13 8 360 352 342 332 326 318 312 307
52 63 54 47 53 63 59 34 53 29 16 7 2 5 23 12 358 4 355 36 59 32 27 6 11 17 30 35 31 35 34 33 30 26 11 4 6 7 4 354 357 360 358 350 350 347 341 332 329 324 319 314 309 306
58 53 46 32 59 43 39 20 37 19 52 348 359 27 9 358 353 353 58 50 43 8 4 12 18 22 24 26 30 36 31 23 17 8 3 359 355 351 354 351 349 346 345 346 335 329 325 320 316 315 312 309 307 306
62 54 35 43 29 41 9 30 26 18 30 25 24 359 347 331 344 35 56 343 350 354 6 17 18 16 16 15 8 3 2 2 358 347 349 350 352 350 345 341 337 335 332 334 331 326 323 317 313 311 308 306 305 304
70 15 30 16 26 36 29 4 351 29 35 333 13 345 336 339 22 16 232 267 315 329 337 345 358 5 2 4 3 357 351 346 344 343 328 336 337 337 337 334 334 336 332 328 326 325 323 318 314 312 310 308 306 304
69 15 48 10 1 65 180 36 4 318 144 350 249 313 333 48 33 263 239 265 287 296 323 340 335 335 341 343 343 339 337 335 334 337 334 331 327 325 326 327 327 335 325 324 322 320 318 315 312 310 307 307 305 304
72 342 72 50 71 107 95 106 108 109 205 227 259 16 49 46 254 252 223 241 288 299 297 300 309 317 325 327 326 325 326 325 325 324 326 326 324 320 318 319 322 324 317 315 313 311 309 309 308 306 304 302 302 302
91 141 166 186 179 179 137 104 161 216 225 185 138 237 180 197 234 201 215 255 279 297 291 290 291 296 308 322 330 336 336 336 334 333 332 339 335 328 318 317 315 312 310 309 308 308 308 307 306 305 303 302 302 303
79 39 338 197 197 217 219 195 216 209 203 189 177 246 246 236 231 250 272 278 280 281 272 262 266 268 269 282 297 312 321 327 326 327 327 328 332 335 329 323 317 313 310 309 309 309 309 309 309 309 309 308 309 309
330 322 268 230 206 236 204 208 226 231 229 232 251 272 277 279 283 268 269 269 271 271 258 253 262 267 274 278 287 294 304 311 315 316 316 319 323 325 324 320 317 316 314 314 315 315 314 312 311 310 310 311 312 313
299 282 268 244 259 252 262 273 275 272 265 260 251 251 258 282 292 265 240 220 219 227 234 250 271 282 285 287 290 292 299 306 309 312 314 317 321 323 324 324 323 322 322 322 322 323 324 323 322 320 319 319 319 318
263 244 275 282 278 291 303 290 282 267 254 247 246 227 244 255 262 236 216 208 213 224 240 254 280 284 292 300 301 303 304 308 312 316 318 320 324 323 323 324 326 327 327 328 328 328 327 325 324 323 321 320 319 317
270 261 259 278 287 296 310 321 282 287 257 257 248 236 232 247 253 229 203 202 209 213 233 274 286 291 303 309 310 309 312 317 320 320 322 325 327 331 334 336 337 336 334 333 332 330 328 326 324 323 322 320 319 319
Wind_Speed_850mb
42 21 29 22 27 29 51 67 65 66 54 48 44 40 37 37 31 31 34 34 28 16 20 30 33 21 15 10 6 5 11 16 10 18 13 8 7 7 2 19 34 16 14 10 7 5 28 24 57 50 40 29 9 68
45 22 30 24 29 36 43 57 59 55 46 44 42 37 33 31 27 23 19 30 38 18 9 28 39 44 43 37 18 19 18 13 22 12 7 6 6 7 17 18 4 11 27 20 24 19 1 84 31 64 42 30 22 50
45 33 28 25 33 38 38 47 54 45 38 33 31 29 28 26 20 14 15 21 23 13 16 25 35 36 42 43 44 21 20 26 19 20 8 3 6 7 9 9 13 1 9 11 11 15 12 53 36 62 22 25 26 22
53 37 35 33 38 37 36 38 43 39 32 30 29 28 25 23 22 15 13 12 13 6 2 11 22 41 31 22 34 57 61 48 38 24 7 6 5 10 6 7 8 6 13 12 5 3 6 16 66 59 49 16 25 29
61 39 30 35 35 39 46 45 38 32 30 32 31 30 30 28 21 14 9 9 4 7 5 12 26 42 34 33 40 51 67 67 38 9 4 7 3 8 4 2 5 11 6 12 8 6 11 22 71 58 54 33 37 47
64 62 43 28 41 42 46 39 36 30 23 18 17 18 17 13 8 3 4 3 13 6 2 5 9 16 23 52 38 49 66 62 39 13 6 8 7 8 4 4 13 25 26 24 12 30 17 15 33 51 51 42 45 46
59 58 54 56 58 50 38 38 34 29 25 25 25 21 16 12 7 8 7 11 11 4 4 6 6 8 26 26 17 8 35 29 24 15 6 8 4 7 6 2 29 39 34 20 26 23 12 5 10 50 52 48 49 48
60 55 47 43 40 34 32 28 23 20 19 19 21 22 21 15 6 5 22 11 16 1 0 2 7 10 26 14 10 9 9 13 3 3 4 4 9 9 7 22 38 44 39 8 36 23 21 19 8 42 46 56 54 55
53 48 48 40 28 24 19 17 15 13 12 12 12 12 9 4 3 12 15 9 10 11 6 5 1 7 23 12 13 12 9 3 10 4 5 9 8 12 16 33 42 47 38 47 39 26 15 1 16 38 51 54 60 64
46 47 46 36 29 22 15 11 10 9 8 8 9 5 5 13 19 12 8 3 6 16 14 4 13 5 13 8 5 7 9 4 2 4 11 9 6 16 34 30 33 39 36 36 30 16 22 15 4 18 33 43 55 64
35 38 42 39 26 22 16 12 8 7 9 9 11 8 17 16 11 11 11 15 15 8 21 18 10 7 9 5 6 8 4 4 2 4 3 6 6 15 49 41 37 34 28 24 13 9 6 3 4 13 20 28 39 49
29 30 31 33 32 18 18 17 16 7 12 11 10 13 15 19 13 13 3 9 10 5 20 10 17 16 18 11 6 9 5 6 6 10 8 6 6 32 45 42 37 33 28 21 16 12 14 17 20 22 28 32 38 44
32 29 30 27 31 21 14 15 15 16 13 12 8 10 19 20 19 11 12 9 9 17 21 27 14 16 12 5 5 6 9 5 4 9 6 5 21 37 41 39 31 29 25 22 25 26 26 31 30 32 36 37 39 44
33 32 30 27 24 19 16 8 14 7 7 11 14 14 8 10 2 6 6 6 13 18 37 40 15 6 12 8 4 7 5 5 6 7 6 6 28 34 31 29 30 32 30 29 31 29 32 36 39 37 35 34 34 39
28 28 26 21 20 21 22 10 15 4 13 13 13 7 5 3 7 11 17 18 14 28 33 18 19 9 6 6 7 5 9 9 9 6 5 20 30 30 31 33 31 30 32 34 32 31 35 35 34 37 37 38 40 42
26 21 31 33 23 18 18 15 10 19 13 12 17 7 12 2 10 13 12 17 32 41 17 7 6 7 8 4 11 9 6 7 4 4 19 25 23 26 27 28 28 29 30 29 29 30 30 30 31 31 28 29 29 28
26 30 24 21 36 29 11 14 17 19 14 11 11 16 9 4 10 15 24 32 43 19 2 3 9 3 6 7 8 7 4 5 12 15 16 16 19 25 27 26 28 29 28 28 29 27 27 25 24 22 20 22 21 19
35 32 21 19 13 31 51 26 16 17 17 18 7 11 8 9 19 15 32 43 24 16 10 4 2 14 6 6 5 3 4 12 11 13 15 17 18 20 25 25 26 28 26 26 26 26 23 20 18 18 17 13 12 10
37 33 18 25 26 17 15 20 18 13 14 7 9 20 10 9 20 28 39 30 16 16 6 8 11 5 1 3 6 3 6 10 10 12 11 14 15 20 22 22 22 24 23 23 22 22 20 18 15 12 10 8 7 6
31 27 22 19 11 13 13 15 13 11 8 9 14 14 8 10 22 26 37 31 25 13 21 10 1 3 4 5 8 9 10 10 14 12 9 13 17 20 19 20 22 23 22 22 22 20 18 16 14 13 12 12 12 14
26 32 30 39 46 27 17 12 14 11 6 7 19 16 10 15 17 34 37 33 20 14 6 9 8 8 10 10 10 10 9 11 12 13 16 16 19 20 22 24 24 25 25 24 22 20 18 17 17 18 18 20 21 23
28 29 37 33 21 15 19 23 9 8 7 8 13 19 13 12 19 24 26 25 11 10 7 6 8 8 7 7 7 9 9 9 10 10 13 17 17 14 14 20 20 20 21 24 24 24 25 29 30 29 29 29 30 31
21 27 21 24 13 17 8 15 7 14 7 18 11 9 9 12 21 21 9 8 6 11 11 10 10 10 10 9 8 9 9 10 11 12 15 17 19 22 22 24 27 28 27 23 28 29 29 30 32 34 34 36 39 39
25 15 15 14 21 6 9 13 11 11 8 10 7 8 10 14 25 10 2 4 7 8 7 6 7 7 8 8 10 12 14 15 15 17 18 18 17 17 21 23 27 31 35 34 30 30 32 33 34 35 37 39 40 43
11 22 14 14 17 9 13 12 14 9 4 6 7 7 8 14 6 5 3 4 6 5 5 4 5 6 7 7 9 10 13 15 16 15 21 24 27 28 27 29 29 32 33 35 35 36 35 38 41 44 44 46 48 49
14 17 10 4 6 6 4 5 4 2 1 6 5 7 7 5 6 7 6 4 6 4 3 4 4 6 8 11 13 15 18 22 25 25 24 27 30 34 37 38 40 36 38 40 44 47 49 49 52 55 57 56 57 60
8 3 6 6 4 6 7 5 4 3 1 4 4 5 5 3 7 8 8 7 4 5 8 9 10 10 11 13 17 21 24 26 27 29 30 31 34 35 36 42 43 38 40 42 46 51 58 62 64 65 69 69 67 67
8 4 4 3 4 4 7 2 4 7 7 8 6 2 11 14 9 8 10 10 12 13 13 13 13 11 10 11 13 16 18 22 25 28 30 26 29 35 34 40 43 45 49 53 57 61 64 68 71 73 75 77 78 73
4 2 2 2 4 8 12 14 10 7 7 10 7 6 10 12 12 13 20 26 31 28 23 19 18 16 15 14 14 16 21 26 32 35 39 45 49 45 46 46 49 52 56 61 60 64 66 67 67 67 69 70 70 68
3 6 3 3 5 7 7 13 8 11 15 21 15 19 27 46 30 24 26 25 24 20 18 22 22 23 24 27 25 26 28 33 36 39 46 53 55 54 54 54 55 54 55 56 57 57 54 54 55 55 56 56 57 59
7 5 5 7 8 6 9 15 24 31 30 25 38 45 45 30 35 20 21 18 13 12 11 11 13 20 25 27 30 32 34 36 39 44 49 52 54 55 53 52 52 53 54 54 54 55 56 56 57 59 60 60 60 59
5 5 4 6 6 10 19 6 9 8 9 9 11 15 10 12 15 13 23 28 21 16 10 13 16 17 19 20 22 25 31 36 41 44 48 51 50 49 49 48 46 45 48 50 51 53 54 56 59 60 62 64 64 64
7 7 9 9 7 6 6 14 7 8 11 9 10 10 12 11 18 15 23 26 22 18 14 13 13 12 16 22 26 30 33 35 39 40 41 42 44 45 46 45 45 46 49 51 53 54 55 56 58 60 62 65 67 68
Wind_Direction_850mb
29 64 69 62 56 76 118 169 150 147 148 152 151 149 157 174 192 205 219 221 200 211 230 213 220 208 188 172 198 352 224 216 208 212 216 190 177 179 294 209 174 164 155 166 144 171 256 169 147 164 210 193 241 205
23 82 84 76 91 84 104 117 131 131 138 141 141 144 153 160 160 167 171 186 201 209 250 238 240 247 252 250 221 205 250 285 197 201 228 149 178 123 235 179 149 148 193 177 188 207 144 172 169 201 165 191 201 199
53 71 79 86 108 94 107 112 104 118 133 137 141 147 152 150 151 165 169 173 183 222 254 252 252 265 261 256 238 216 226 237 241 212 186 193 189 115 234 231 152 227 187 166 114 211 196 197 201 210 212 220 216 220
41 74 86 87 96 113 111 105 107 102 113 125 132 136 143 143 139 136 135 162 182 167 268 273 250 251 263 277 245 235 239 230 280 264 165 186 186 137 265 219 164 183 152 153 277 210 54 213 208 209 210 218 208 203
46 59 79 93 99 109 111 106 110 110 101 106 113 119 126 133 135 135 126 126 189 218 221 281 274 268 266 292 273 235 238 248 256 257 188 211 179 120 234 257 76 358 1 202 206 191 172 205 206 208 202 201 199 188
44 58 64 81 101 102 103 110 111 113 114 114 126 136 138 136 131 129 176 247 338 250 202 287 264 277 275 309 280 243 228 227 227 222 196 198 184 122 224 32 29 12 0 4 321 323 277 287 204 196 200 199 187 182
41 39 52 51 67 90 94 104 105 104 103 96 92 103 129 123 110 101 72 357 332 234 213 306 302 305 323 325 311 235 204 201 216 192 190 163 117 78 76 39 349 346 337 338 346 335 263 338 191 196 200 197 186 179
34 34 35 42 61 82 95 101 103 99 93 89 88 89 94 106 96 37 13 10 15 222 70 46 280 331 358 312 297 325 238 194 111 109 90 83 52 50 76 352 347 345 343 319 352 355 310 292 264 199 203 192 183 178
29 30 28 27 47 61 75 91 99 103 94 82 85 81 94 68 74 338 340 9 24 40 105 78 12 293 344 297 292 303 309 47 25 34 39 57 16 47 353 344 346 347 351 323 331 2 354 341 173 185 185 181 184 177
24 27 24 28 41 45 44 59 71 84 94 78 54 79 98 341 349 2 23 15 46 25 33 47 318 284 338 313 291 320 350 337 77 69 73 60 83 93 12 351 347 340 338 344 356 344 14 30 105 162 172 181 187 180
20 23 25 30 36 43 37 26 26 51 60 40 42 38 5 1 23 38 42 38 342 28 6 346 312 328 315 287 288 345 323 308 82 40 61 63 46 357 347 354 359 356 356 360 346 326 2 345 152 162 165 174 177 175
22 20 17 22 24 29 38 41 43 68 76 67 54 21 13 25 35 65 346 342 38 4 335 323 312 297 294 315 302 341 340 353 39 341 61 60 28 349 351 357 4 10 18 24 35 67 98 123 128 143 145 149 154 160
31 31 21 15 15 20 28 42 53 64 86 63 45 47 13 356 38 55 341 328 353 345 7 342 321 317 303 297 291 348 12 10 290 43 64 43 349 349 355 -0 12 25 37 48 63 73 93 106 120 129 129 132 140 144
24 19 13 11 17 25 28 41 31 45 50 54 38 29 67 352 3 187 203 233 297 305 323 320 270 292 310 341 332 349 345 16 66 51 34 7 346 345 355 8 21 30 42 52 62 74 91 101 104 109 113 119 130 132
10 17 20 22 21 26 21 20 26 86 59 65 41 59 64 279 274 295 300 294 305 300 320 314 281 245 318 351 10 349 21 57 34 29 0 343 340 350 3 15 23 31 40 49 57 65 73 82 93 103 111 121 129 133
12 32 36 35 28 13 13 31 71 66 63 58 53 68 3 18 342 349 322 312 341 331 328 252 277 20 22 18 37 26 349 37 10 338 323 336 352 3 9 16 24 31 40 48 56 62 71 79 86 89 98 108 115 121
26 35 38 34 33 12 24 76 54 53 54 54 45 27 29 297 281 325 334 337 341 339 358 321 48 236 309 45 46 13 35 315 318 324 334 345 354 3 12 21 29 34 41 48 54 62 67 73 75 82 96 100 106 115
26 24 29 25 38 54 65 53 71 64 66 55 66 4 359 8 354 358 348 348 357 3 4 93 314 41 46 60 2 347 332 322 323 337 343 346 351 6 14 21 28 33 39 45 49 53 57 61 63 65 70 81 87 99
21 23 51 43 62 59 54 42 48 84 57 37 8 358 343 355 1 359 0 0 9 31 35 49 60 66 305 224 226 284 333 350 341 344 8 27 34 18 16 21 24 25 32 37 39 40 42 43 40 35 28 18 0 340
31 36 51 54 71 67 69 45 47 72 67 11 359 351 351 357 357 5 16 25 40 46 39 42 165 312 272 313 307 316 332 345 357 8 21 16 12 10 15 17 18 19 20 20 16 16 15 7 358 348 337 322 309 298
52 59 68 76 67 65 72 49 52 57 38 20 7 0 338 354 7 11 13 19 52 42 57 37 8 357 351 352 355 356 358 358 1 1 350 3 10 15 14 12 14 14 13 13 13 8 360 352 342 332 326 318 312 307
52 63 54 47 53 63 59 34 53 29 16 7 2 5 23 12 358 4 355 36 59 32 27 6 11 17 30 35 31 35 34 33 30 26 11 4 6 7 4 354 357 360 358 350 350 347 341 332 329 324 319 314 309 306
58 53 46 32 59 43 39 20 37 19 52 348 359 27 9 358 353 353 58 50 43 8 4 12 18 22 24 26 30 36 31 23 17 8 3 359 355 351 354 351 349 346 345 346 335 329 325 320 316 315 312 309 307 306
62 54 35 43 29 41 9 30 26 18 30 25 24 359 347 331 344 35 56 343 350 354 6 17 18 16 16 15 8 3 2 2 358 347 349 350 352 350 345 341 337 335 332 334 331 326 323 317 313 311 308 306 305 304
70 15 30 16 26 36 29 4 351 29 35 333 13 345 336 339 22 16 232 267 315 329 337 345 358 5 2 4 3 357 351 346 344 343 328 336 337 337 337 334 334 336 332 328 326 325 323 318 314 312 310 308 306 304
69 15 48 10 1 65 180 36 4 318 144 350 249 313 333 48 33 263 239 265 287 296 323 340 335 335 341 343 343 339 337 335 334 337 334 331 327 325 326 327 327 335 325 324 322 320 318 315 312 310 307 307 305 304
72 342 72 50 71 107 95 106 108 109 205 227 259 16 49 46 254 252 223 241 288 299 297 300 309 317 325 327 326 325 326 325 325 324 326 326 324 320 318 319 322 324 317 315 313 311 309 309 308 306 304 302 302 302
91 141 166 186 179 179 137 104 161 216 225 185 138 237 180 197 234 201 215 255 279 297 291 290 291 296 308 322 330 336 336 336 334 333 332 339 335 328 318 317 315 312 310 309 308 308 308 307 306 305 303 302 302 303
79 39 338 197 197 217 219 195 216 209 203 189 177 246 246 236 231 250 272 278 280 281 272 262 266 268 269 282 297 312 321 327 326 327 327 328 332 335 329 323 317 313 310 309 309 309 309 309 309 309 309 308 309 309
330 322 268 230 206 236 204 208 226 231 229 232 251 272 277 279 283 268 269 269 271 271 258 253 262 267 274 278 287 294 304 311 315 316 316 319 323 325 324 320 317 316 314 314 315 315 314 312 311 310 310 311 312 313
299 282 268 244 259 252 262 273 275 272 265 260 251 251 258 282 292 265 240 220 219 227 234 250 271 282 285 287 290 292 299 306 309 312 314 317 321 323 324 324 323 322 322 322 322 323 324 323 322 320 319 319 319 318
263 244 275 282 278 291 303 290 282 267 254 247 246 227 244 255 262 236 216 208 213 224 240 254 280 284 292 300 301 303 304 308 312 316 318 320 324 323 323 324 326 327 327 328 328 328 327 325 324 323 321 320 319 317
270 261 259 278 287 296 310 321 282 287 257 257 248 236 232 247 253 229 203 202 209 213 233 274 286 291 303 309 310 309 312 317 320 320 322 325 327 331 334 336 337 336 334 333 332 330 328 326 324 323 322 320 319 319